TimeMDT,TemperatureF,Dew PointF,Humidity,Sea Level PressureIn,VisibilityMPH,Wind Direction,Wind SpeedMPH,Gust SpeedMPH,PrecipitationIn,Events,Conditions,WindDirDegrees,DateUTC
12:53 AM,44.1,39.9,85,29.91,10.0,WNW,8.1,-,0.00,,Overcast,290,2013-04-21 06:53:00
1:43 AM,44.6,39.2,81,29.91,10.0,WNW,10.4,-,0.00,,Overcast,290,2013-04-21 07:43:00
1:53 AM,44.1,39.9,85,29.92,10.0,NW,10.4,-,0.00,,Overcast,310,2013-04-21 07:53:00
2:01 AM,44.6,39.2,81,29.92,10.0,NW,23.0,27.6,N/A,,Overcast,310,2013-04-21 08:01:00
2:18 AM,42.8,37.4,81,29.94,10.0,NW,21.9,-,N/A,,Overcast,320,2013-04-21 08:18:00
2:53 AM,39.9,37.0,89,29.96,10.0,NNW,19.6,26.5,N/A,,Overcast,330,2013-04-21 08:53:00
3:53 AM,37.0,33.1,86,30.01,10.0,NNW,20.7,-,N/A,,Overcast,340,2013-04-21 09:53:00
4:22 AM,35.6,30.2,81,30.01,10.0,North,23.0,29.9,N/A,,Overcast,350,2013-04-21 10:22:00
4:53 AM,36.0,30.0,79,30.04,10.0,North,18.4,25.3,N/A,,Overcast,10,2013-04-21 10:53:00
5:01 AM,35.6,30.2,81,30.02,10.0,North,16.1,-,N/A,,Overcast,360,2013-04-21 11:01:00
5:43 AM,35.6,30.2,81,30.05,3.0,North,11.5,-,0.00,Snow,Light Snow,360,2013-04-21 11:43:00
5:48 AM,33.8,30.2,87,30.05,1.8,North,9.2,-,0.01,Snow,Light Snow,360,2013-04-21 11:48:00
5:53 AM,34.0,30.9,89,30.09,1.2,North,10.4,-,0.01,Snow,Light Snow,360,2013-04-21 11:53:00
6:36 AM,33.8,30.2,87,30.08,1.5,NNW,16.1,20.7,0.03,Snow,Light Snow,330,2013-04-21 12:36:00
6:38 AM,33.8,30.2,87,30.09,1.2,NNW,12.7,20.7,0.04,Snow,Light Snow,330,2013-04-21 12:38:00
6:42 AM,33.8,30.2,87,30.09,0.8,NNW,13.8,-,0.04,Snow,Light Snow,330,2013-04-21 12:42:00
6:53 AM,33.1,30.0,89,30.13,0.5,NNW,15.0,-,0.05,Fog-Snow,Snow,330,2013-04-21 12:53:00
7:01 AM,32.0,30.2,93,30.10,0.5,NNW,17.3,-,0.00,Fog-Snow,Snow,340,2013-04-21 13:01:00
7:23 AM,32.0,28.4,87,30.10,1.0,NNW,15.0,-,0.00,Snow,Light Snow,340,2013-04-21 13:23:00
7:36 AM,32.0,28.4,87,30.11,2.5,North,15.0,-,0.00,Snow,Light Snow,350,2013-04-21 13:36:00
7:43 AM,32.0,28.4,87,30.11,2.5,North,11.5,-,0.00,Snow,Light Snow,350,2013-04-21 13:43:00
7:53 AM,32.0,28.9,88,30.16,2.0,North,10.4,-,0.00,Snow,Light Snow,350,2013-04-21 13:53:00
8:00 AM,32.0,28.4,87,30.12,3.0,North,8.1,-,0.00,Snow,Light Snow,360,2013-04-21 14:00:00
8:08 AM,32.0,28.4,87,30.12,5.0,North,8.1,-,0.00,Snow,Light Snow,10,2013-04-21 14:08:00
8:40 AM,32.0,28.4,87,30.13,1.8,NNW,11.5,-,0.00,Snow,Light Snow,330,2013-04-21 14:40:00
8:53 AM,32.0,28.9,88,30.18,1.8,NNW,17.3,-,0.00,Snow,Light Snow,340,2013-04-21 14:53:00
8:59 AM,33.8,28.4,81,30.13,2.5,North,16.1,-,0.00,Snow,Light Snow,350,2013-04-21 14:59:00
9:02 AM,33.8,28.4,81,30.13,3.0,North,15.0,-,0.00,Snow,Light Snow,350,2013-04-21 15:02:00
9:23 AM,33.8,28.4,81,30.14,1.8,NNW,17.3,20.7,0.00,Snow,Light Snow,340,2013-04-21 15:23:00
9:53 AM,32.0,28.9,88,30.20,1.5,NNW,15.0,-,0.00,Snow,Light Snow,330,2013-04-21 15:53:00
10:01 AM,32.0,28.4,87,30.15,1.0,North,16.1,-,0.00,Snow,Light Snow,350,2013-04-21 16:01:00
10:10 AM,32.0,28.4,87,30.15,1.0,NNW,13.8,-,0.00,Snow,Light Snow,330,2013-04-21 16:10:00
10:53 AM,32.0,28.9,88,30.22,1.2,NNW,15.0,-,0.01,Snow,Light Snow,330,2013-04-21 16:53:00
11:06 AM,30.2,28.4,93,30.17,0.5,NNW,11.5,-,0.00,Fog-Snow,Snow,340,2013-04-21 17:06:00
11:39 AM,33.8,30.2,87,30.17,1.0,NNW,15.0,-,0.01,Snow,Light Snow,330,2013-04-21 17:39:00
11:53 AM,34.0,30.0,85,30.22,1.8,NNW,15.0,-,0.01,Snow,Light Snow,330,2013-04-21 17:53:00
11:56 AM,33.8,30.2,87,30.17,2.0,NNW,12.7,-,0.00,Snow,Light Snow,340,2013-04-21 17:56:00
12:18 PM,35.6,30.2,81,30.16,3.0,NNW,11.5,-,0.00,Snow,Light Snow,330,2013-04-21 18:18:00
12:27 PM,35.6,30.2,81,30.16,4.0,NNW,12.7,-,0.00,Snow,Light Snow,330,2013-04-21 18:27:00
12:37 PM,33.8,30.2,87,30.16,2.0,NW,11.5,-,0.00,Snow,Light Snow,310,2013-04-21 18:37:00
12:46 PM,35.6,30.2,81,30.16,6.0,NNW,11.5,-,0.00,Snow,Light Snow,340,2013-04-21 18:46:00
12:53 PM,36.0,30.0,79,30.21,8.0,NW,10.4,-,0.00,Snow,Light Snow,320,2013-04-21 18:53:00
1:53 PM,37.0,28.9,73,30.20,10.0,NW,12.7,-,0.00,,Overcast,310,2013-04-21 19:53:00
2:53 PM,37.0,28.0,70,30.22,10.0,North,12.7,-,0.00,,Overcast,350,2013-04-21 20:53:00
3:10 PM,37.4,26.6,65,30.16,10.0,NNW,11.5,-,N/A,,Overcast,340,2013-04-21 21:10:00
3:34 PM,37.4,26.6,65,30.16,9.0,North,11.5,-,N/A,,Overcast,350,2013-04-21 21:34:00
3:44 PM,37.4,26.6,65,30.16,10.0,North,12.7,19.6,N/A,,Overcast,350,2013-04-21 21:44:00
3:53 PM,37.0,28.0,70,30.22,6.0,NNW,11.5,-,0.00,Snow,Light Snow,340,2013-04-21 21:53:00
4:53 PM,37.0,26.1,65,30.21,10.0,NNE,8.1,-,0.00,,Overcast,20,2013-04-21 22:53:00
5:53 PM,37.0,25.0,62,30.23,10.0,North,10.4,-,N/A,,Overcast,360,2013-04-21 23:53:00
6:53 PM,37.0,23.0,57,30.23,10.0,North,11.5,-,N/A,,Overcast,350,2013-04-22 00:53:00
7:53 PM,36.0,23.0,59,30.24,10.0,North,6.9,-,N/A,,Overcast,360,2013-04-22 01:53:00
8:53 PM,35.1,23.0,61,30.27,10.0,NNW,8.1,-,N/A,,Mostly Cloudy,340,2013-04-22 02:53:00
9:53 PM,35.1,21.9,59,30.29,10.0,NNW,9.2,-,N/A,,Overcast,340,2013-04-22 03:53:00
10:53 PM,35.1,21.9,59,30.30,10.0,North,15.0,-,N/A,,Overcast,10,2013-04-22 04:53:00
11:53 PM,32.0,21.0,64,30.32,10.0,NNE,13.8,-,N/A,,Overcast,30,2013-04-22 05:53:00